Eagle, CO

4:36 AM MDT on May 28, 2017 (GMT -0600)
Eagle County Regional

Weather History for KEGE - April, 2013

Change the Weather History Date:

Wednesday, April 3, 2013

  Actual Average Record
Temperature  
Mean Temperature 45 °F -  
Max Temperature 55 °F 51 °F 70 °F (1967)
Min Temperature 35 °F 22 °F 11 °F (1975)
Degree Days  
Heating Degree Days 20    
Moisture  
Dew Point 30 °F    
Average Humidity 69    
Maximum Humidity 100    
Minimum Humidity 20    
Precipitation  
Precipitation 0.02 in - - ()
Sea Level Pressure  
Sea Level Pressure 30.13 in    
Wind  
Wind Speed 1 mph (East)    
Max Wind Speed 8 mph    
Max Gust Speed -    
Visibility 10 miles    
Events      
Averages and records for this station are not official NWS values.
T = Trace of Precipitation, MM = Missing Value Source: NWS Daily Summary

Daily Weather History Graph

Daily Weather History Graph

Search for Another Location

Airport or City:

Trip Planner

Search our weather history database for the weather conditions in past years. The results will help you decide how hot, cold, wet, or windy it might be!

Date:

Astronomy

Apr. 03, 2013 Rise Set
Actual Time 6:48 AM MDT 7:34 PM MDT
Civil Twilight 6:20 AM MDT 8:01 PM MDT
Nautical Twilight 5:48 AM MDT 8:33 PM MDT
Astronomical Twilight 5:15 AM MDT 9:07 PM MDT
Moon 2:30 AM MDT (4/3) 12:50 PM MDT (4/3)
Length of Visible Light 13h 40m
Length of Day
12h 45m
Last Quarter, 44% of the Moon is Illuminated
Apr 3
Last Quarter
Apr 10
New
Apr 18
First Quarter
Apr 25
Full
May 2
Last Quarter

Hourly Weather History & Observations

Time (MDT) Temp. Windchill Dew Point Humidity Pressure Visibility Wind Dir Wind Speed Gust Speed Precip Events Conditions
12:15 AM 37.4 °F - 35.6 °F 93% 30.06 in 10.0 mi Calm Calm - N/A   Overcast
12:35 AM 37.4 °F - 37.4 °F 100% 30.06 in 10.0 mi Calm Calm - N/A   Overcast
12:55 AM 37.4 °F - 37.4 °F 100% 30.06 in 10.0 mi Calm Calm - N/A   Overcast
1:15 AM 39.2 °F - 37.4 °F 93% 30.06 in 10.0 mi Calm Calm - N/A   Overcast
1:35 AM 37.4 °F - 35.6 °F 93% 30.06 in 10.0 mi Calm Calm - N/A   Overcast
1:55 AM 37.4 °F 34.9 °F 35.6 °F 93% 30.06 in 10.0 mi South 3.5 mph - N/A   Overcast
2:15 AM 37.4 °F - 35.6 °F 93% 30.06 in 10.0 mi Calm Calm - N/A   Overcast
2:55 AM 37.4 °F - 37.4 °F 100% 30.07 in 10.0 mi Calm Calm - N/A   Overcast
3:15 AM 37.4 °F 34.9 °F 35.6 °F 93% 30.07 in 10.0 mi East 3.5 mph - N/A   Overcast
3:35 AM 37.4 °F 33.8 °F 35.6 °F 93% 30.07 in 10.0 mi East 4.6 mph - N/A   Overcast
3:55 AM 37.4 °F 34.9 °F 35.6 °F 93% 30.08 in 10.0 mi ENE 3.5 mph - N/A   Overcast
4:15 AM 37.4 °F - 35.6 °F 93% 30.08 in 10.0 mi Calm Calm - N/A   Overcast
4:35 AM 37.4 °F - 35.6 °F 93% 30.09 in 10.0 mi Calm Calm - N/A   Overcast
4:55 AM 37.4 °F - 35.6 °F 93% 30.09 in 10.0 mi Calm Calm - N/A   Mostly Cloudy
5:15 AM 37.4 °F - 35.6 °F 93% 30.10 in 10.0 mi Calm Calm - N/A   Overcast
5:35 AM 37.4 °F - 35.6 °F 93% 30.11 in 10.0 mi Calm Calm - N/A   Overcast
5:55 AM 37.4 °F - 35.6 °F 93% 30.12 in 10.0 mi Calm Calm - N/A   Overcast
6:15 AM 37.4 °F 34.9 °F 35.6 °F 93% 30.13 in 10.0 mi East 3.5 mph - N/A   Overcast
6:35 AM 37.4 °F - 35.6 °F 93% 30.13 in 10.0 mi Calm Calm - N/A   Overcast
6:50 AM 35.6 °F - 35.6 °F 100% 30.14 in 10.0 mi Calm Calm - N/A   Mostly Cloudy
7:50 AM 39.2 °F - 35.6 °F 87% 30.16 in - North - - N/A   Mostly Cloudy
8:50 AM 39.2 °F 35.9 °F 35.6 °F 87% 30.17 in 10.0 mi West 4.6 mph - N/A   Mostly Cloudy
9:50 AM 39.2 °F - 33.8 °F 81% 30.17 in 10.0 mi Calm Calm - N/A   Mostly Cloudy
10:55 AM 42.8 °F - 32.0 °F 66% 30.18 in 10.0 mi Calm Calm - N/A   Scattered Clouds
11:50 AM 46.4 °F - 30.2 °F 53% 30.17 in 10.0 mi Calm Calm - N/A   Scattered Clouds
11:55 AM 42.8 °F - 32.0 °F 66% 30.18 in 10.0 mi Calm Calm - N/A   Scattered Clouds
12:50 PM 48.2 °F - 30.2 °F 50% 30.16 in 10.0 mi Calm Calm - N/A   Scattered Clouds
1:50 PM 50.0 °F - 26.6 °F 40% 30.15 in 10.0 mi Calm Calm - N/A   Partly Cloudy
2:50 PM 53.6 °F - 24.8 °F 33% 30.13 in 10.0 mi Calm Calm - N/A   Partly Cloudy
3:55 PM 55.4 °F - 24.8 °F 31% 30.12 in 10.0 mi ESE 4.6 mph - N/A   Partly Cloudy
4:55 PM 55.4 °F - 14.0 °F 20% 30.11 in 10.0 mi North 8.1 mph - N/A   Partly Cloudy
5:55 PM 55.4 °F - 19.4 °F 25% 30.11 in 10.0 mi Calm Calm - N/A   Partly Cloudy
6:47 PM 55.4 °F - 21.2 °F 26% 30.11 in 10.0 mi Calm Calm - N/A   Partly Cloudy
7:15 PM 53.6 °F - 19.4 °F 26% 30.12 in 10.0 mi East 4.6 mph - N/A   Clear
7:35 PM 53.6 °F - 21.2 °F 28% 30.12 in 10.0 mi East 5.8 mph - N/A   Clear
7:55 PM 51.8 °F - 23.0 °F 33% 30.12 in 10.0 mi ENE 5.8 mph - N/A   Clear
8:15 PM 48.2 °F - 23.0 °F 37% 30.13 in 10.0 mi NE 8.1 mph - N/A   Clear
8:35 PM 46.4 °F 44.3 °F 26.6 °F 46% 30.14 in 10.0 mi East 4.6 mph - N/A   Scattered Clouds
8:55 PM 44.6 °F 41.4 °F 26.6 °F 49% 30.16 in 10.0 mi East 5.8 mph - N/A   Partly Cloudy
9:15 PM 42.8 °F 40.1 °F 26.6 °F 53% 30.17 in 10.0 mi ENE 4.6 mph - N/A   Clear
9:35 PM 42.8 °F - 24.8 °F 49% 30.19 in 10.0 mi Calm Calm - N/A   Clear
9:55 PM 42.8 °F 39.3 °F 26.6 °F 53% 30.19 in 10.0 mi East 5.8 mph - N/A   Clear
10:15 PM 41.0 °F - 26.6 °F 57% 30.20 in 10.0 mi Calm Calm - N/A   Clear
10:35 PM 39.2 °F 35.9 °F 26.6 °F 61% 30.20 in 10.0 mi East 4.6 mph - N/A   Clear
11:15 PM 39.2 °F 35.9 °F 26.6 °F 61% 30.20 in 10.0 mi SSE 4.6 mph - N/A   Partly Cloudy
11:35 PM 37.4 °F 33.8 °F 26.6 °F 65% 30.20 in 10.0 mi East 4.6 mph - N/A   Partly Cloudy
11:55 PM 37.4 °F - 26.6 °F 65% 30.21 in 10.0 mi Calm Calm - N/A   Clear